sat.trackr.live / text

‹ back to catalog

STARLINK-36084

NORAD 66829 · 2025-280J

PAYLOAD ACTIVE UNKNOWN

§ Identity

Operator
Country
US
Launch date
2025-12-02
Launch site
AFWTR
Launch vehicle
Mass (kg)
RCS (m²)

Purposes: comms

External: N2YO · Heavens-Above · Gunter

§ Orbital elements

Epoch: 2026-09-20T08:04:27.273792Z

Period
96.11 min
Inclination
69.9995°
Eccentricity
0.0002960
Mean motion
14.98348928 rev/d
Perigee alt
569.9 km
Apogee alt
574.1 km
Semi-major
6,950.1 km
B*
3.4550e-4
RAAN
203.6174°
Arg perigee
264.2070°
Mean anomaly
95.8751°
Rev number
4,523

§ Raw data

STARLINK-360841 66829U 25280J   26263.33642678  .00004034  00000+0  34550-3 0  99962 66829  69.9995 203.6174 0002960 264.2070  95.8751 14.98348928 45236

JSON: /api/v1/satellites/66829 · /tle

For live sub-satellite position, see the globe view (requires WebGL).

§ Visibility from observer

Set your observer location to see the next 7 days of passes ≥ 10°. The values pass through the URL so the page stays shareable.

No JS? Fill the form by hand. The geolocation button needs JavaScript.